Regional Weather Roundup
Issued by NWS Charleston, SC

Current Version | Previous Version | Graphics & Text | Print | Product List | Glossary On
Versions: 1 2 3 4 5 6 7 8 9 10 11 12 13 14 15 16 17 18 19 20 21 22 23 24 25 26 27 28 29 30 31 32 33 34 35 36 37 38 39 40 41 42 43 44 45 46 47 48 49 50
651 ASUS42 KCHS 251612 RWRCHS REGIONAL WEATHER ROUNDUP NATIONAL WEATHER SERVICE CHARLESTON SC 1200 PM EDT THU MAY 25 2017 NOTE: "FAIR" INDICATES FEW OR NO CLOUDS BELOW 12,000 FEET WITH NO SIGNIFICANT WEATHER AND/OR OBSTRUCTIONS TO VISIBILITY. NOT ALL STATIONS ARE QUALITY CONTROLLED. USE DATA WITH CAUTION... ESPECIALLY DEWPOINT OBSERVATIONS. SCZ027-030-031-034>040-042>050-251700- ...SOUTHEAST SOUTH CAROLINA... CITY SKY/WX TMP DP RH WIND PRES REMARKS N CHARLESTON PTSUNNY 73 53 49 W15G24 29.71R WATERFRONT PRK N/A 72 56 57 SW13 29.69R JOHNS ISLAND PTSUNNY 73 55 53 SW12G22 29.72R PINOPOLIS N/A 70 59 68 SW14G22 29.62R MONCKS CORNER CLOUDY 72 52 49 W12G17 29.70R SUMMERVILLE PTSUNNY 72 54 53 SW15G22 29.72R BEAUFORT MCAS PTSUNNY 73 55 53 W20G26 29.74R BEAUFORT ARPT PTSUNNY 72 55 56 W20G26 29.74R HAZE HILTON HEAD IS MOSUNNY 72 54 53 SW17G23 29.76R WALTERBORO PTSUNNY 70 54 56 W15G23 29.73S ALLENDALE PTSUNNY 70 54 56 W10G21 29.72S ...SOUTHERN MIDLANDS AND PEE DEE... CITY SKY/WX TMP DP RH WIND PRES REMARKS GEORGETOWN PTSUNNY 72 54 53 SW17G24 29.69R KINGSTREE CLOUDY 68 54 60 SW8G16 29.68R ORANGEBURG RAIN 64 57 78 W13G29 29.70R BARNWELL FAIR 72 57 60 SW18G25 29.72S AIKEN FAIR 64 57 77 W12 29.75R MANNING FAIR 68 59 73 W22G29 29.69S COLUMBIA LGT RAIN 65 57 75 SW12G22 29.68R SUMTER PTSUNNY 73 54 52 SW17 29.64S FLORENCE PTSUNNY 71 54 54 SW21G28 29.65R MYRTLE BEACH MOSUNNY 75 55 50 W17G25 29.66F N MYRTLE BEACH SUNNY 76 56 49 SW18G26 29.65R $$ GAZ063-065-086>088-099>101-113>116-118-119-134>141-150-251700- ...SOUTHEAST GEORGIA... CITY SKY/WX TMP DP RH WIND PRES REMARKS SAVANNAH ARPT PTSUNNY 75 52 44 W21G30 29.77R HUNTER AAF MOSUNNY 74 60 63 W18G25 29.74R FORT STEWART MOSUNNY 73 53 49 W14G22 29.76R STATESBORO PTSUNNY 71 55 56 W15G24 29.77S SYLVANIA PTSUNNY 70 58 64 NW15 29.76S CLAXTON FAIR 72 59 64 SW10G18 29.78R ...CSRA...CENTRAL AND FAR SOUTHEAST GEORGIA... CITY SKY/WX TMP DP RH WIND PRES REMARKS THOMSON MOSUNNY 67 53 59 NW17G23 29.79S AUGUSTA-BUSH MOSUNNY 72 55 55 W18G26 29.72R AUGUSTA-DANIEL PTSUNNY 69 51 52 SW12G22 29.73S SWAINSBORO PTSUNNY 68 55 64 W14G22 29.79R VIDALIA MOSUNNY 70 54 56 W15 29.80R EASTMAN PTSUNNY 71 44 39 W10G18 29.84S HAZLEHURST FAIR 72 55 54 W10G20 29.81R ALMA SUNNY 73 50 44 W14G23 29.81R WAYCROSS SUNNY 77 55 45 W21G31 29.81S JESUP PTSUNNY 73 50 43 W12G25 29.80S BAXLEY PTSUNNY 72 55 56 NW14G23 29.81R BRUNSWICK PTSUNNY 73 55 53 W17G24 29.81R SAINT SIMONS MOSUNNY 75 51 43 W18G26 29.80R $$ SCZ027-028-034-036>038-045-046-048>050-GAZ119-141-251700- ...LAKE AND SUPPLEMENTAL COASTAL OBSERVATIONS... STATION/POSITION TIME TEMP WIND PRES WAVE SWELL AIR SEA DIR/SP/G HT/PER HT/PER/DIR (UTC) (F) (DEG/KT/KT) (MB) (FT/S) (FT/S/D) WINYAH BAY NOT AVBL LAKE MURRAY 1520 67 260/ 15/ 23 1004.4 ACE BASIN NERRS 1445 71 230/ 4 1007.0 FORT PULASKI 1548 70 280/ 16/ 24 1007.8R SAPELO ISLAND 1500 71 250/ 16 1008.0 $$ ANZ835-935-AMZ111-154-330-350-352-354-370-450-454-472-251700- ...C-MAN AND BUOY OBSERVATIONS... STATION/POSITION TIME TEMP WIND PRES WAVE SWELL AIR SEA DIR/SP/G HT/PER HT/PER/DIR (UTC) (F) (DEG/KT/KT) (MB) (FT/S) (FT/S/D) BUOY 41004 1550 72 75 230/ 19/ 27 1006.0F 8/ 7 3/170/ 9 BUOY 41008 1450 71 77 230/ 19/ 25 1007.5 4/ 7 2/120/ 7 FOLLY BEACH CMAN 1500 73 230/ 12/ 15 1006.3F CAPERS NEARSHORE 1508 76 77 240/ 21/ 29 1004.9F FRIPP NEARSHORE 1508 71 77 260/ 21/ 29 1006.1R STATION/POSITION TIME TEMP WIND PRES WAVE SWELL AIR SEA DIR/SP/G HT/PER HT/PER/DIR (UTC) (F) (DEG/KT/KT) (MB) (FT/S) (FT/S/D) 5E ST. MARYS GA 1530 78 N/A 3/ 6 FRYING PAN BUOY 1550 73 76 230/ 23/ 29 1005.0R 10/ 9 5/190/ 9 BUOY 41025 1550 78 77 230/ 27/ 33 1002.8F 9/ 7 5/240/15 CAPE LOOKOUT NC 1500 76 230/ 18/ 25 1003.0R BUOY 41002 1550 77 76 190/ 23/ 27 1009.3S 10/ 8 3/180/13 BUOY 41010 1550 72 78 240/ 25/ 33 1010.0R 8/ 7 ST AUGUSTINE FL 1600 75 76 270/ 12/ 14 1011.6R $$

USA.gov is the U.S. government's official web portal to all federal, state and local government web resources and services.